Time,TemperatureF,DewpointF,PressureIn,WindDirection,WindDirectionDegrees,WindSpeedMPH,WindSpeedGustMPH,Humidity,HourlyPrecipIn,Conditions,Clouds,dailyrainin,SolarRadiationWatts/m^2,SoftwareType,DateUTC
2013-11-15 00:01:00,37.0,29.0,-100.00,SW,224,1.0,6.0,73,0.00,,,0.00,0.000000,,2013-11-15 07:01:00,
2013-11-15 00:42:00,37.0,29.0,-100.00,SW,224,1.0,6.0,73,0.00,,,0.00,0.000000,,2013-11-15 07:42:00,
2013-11-15 00:52:00,37.0,29.0,-100.00,SW,224,1.0,6.0,73,0.00,,,0.00,0.000000,,2013-11-15 07:52:00,
2013-11-15 01:01:00,39.0,27.0,-100.00,WSW,256,2.0,10.0,63,0.00,,,0.00,0.000000,,2013-11-15 08:01:00,
2013-11-15 01:22:00,39.0,27.0,-100.00,WSW,256,2.0,10.0,63,0.00,,,0.00,0.000000,,2013-11-15 08:22:00,
2013-11-15 01:32:00,39.0,27.0,-100.00,WSW,256,2.0,10.0,63,0.00,,,0.00,0.000000,,2013-11-15 08:32:00,
2013-11-15 01:42:00,39.0,27.0,-100.00,WSW,256,2.0,10.0,63,0.00,,,0.00,0.000000,,2013-11-15 08:42:00,
2013-11-15 01:52:00,39.0,27.0,-100.00,WSW,256,2.0,10.0,63,0.00,,,0.00,0.000000,,2013-11-15 08:52:00,
2013-11-15 02:01:00,38.0,30.0,-100.00,NW,313,1.0,4.0,72,0.00,,,0.00,0.000000,,2013-11-15 09:01:00,
2013-11-15 02:43:00,38.0,30.0,-100.00,NW,313,1.0,4.0,72,0.00,,,0.00,0.000000,,2013-11-15 09:43:00,
2013-11-15 02:53:00,38.0,30.0,-100.00,NW,313,1.0,4.0,72,0.00,,,0.00,0.000000,,2013-11-15 09:53:00,
2013-11-15 03:01:00,38.0,25.0,-100.00,WSW,244,1.0,7.0,60,0.00,,,0.00,0.000000,,2013-11-15 10:01:00,
2013-11-15 03:43:00,38.0,25.0,-100.00,WSW,244,1.0,7.0,60,0.00,,,0.00,0.000000,,2013-11-15 10:43:00,
2013-11-15 03:52:00,38.0,25.0,-100.00,WSW,244,1.0,7.0,60,0.00,,,0.00,0.000000,,2013-11-15 10:52:00,
2013-11-15 04:01:00,38.0,26.0,-100.00,SW,231,2.0,4.0,62,0.00,,,0.00,0.000000,,2013-11-15 11:01:00,
2013-11-15 04:42:00,38.0,26.0,-100.00,SW,231,2.0,4.0,62,0.00,,,0.00,0.000000,,2013-11-15 11:42:00,
2013-11-15 04:52:00,38.0,26.0,-100.00,SW,231,2.0,4.0,62,0.00,,,0.00,0.000000,,2013-11-15 11:52:00,
2013-11-15 05:01:00,38.0,25.0,-100.00,ENE,69,3.0,7.0,60,0.00,,,0.00,0.000000,,2013-11-15 12:01:00,
2013-11-15 05:42:00,38.0,25.0,-100.00,ENE,69,3.0,7.0,60,0.00,,,0.00,0.000000,,2013-11-15 12:42:00,
2013-11-15 05:52:00,38.0,25.0,-100.00,ENE,69,3.0,7.0,60,0.00,,,0.00,0.000000,,2013-11-15 12:52:00,
2013-11-15 06:01:00,39.0,23.0,-100.00,SE,146,5.0,12.0,52,0.00,,,0.00,0.000000,,2013-11-15 13:01:00,
2013-11-15 06:22:00,39.0,23.0,-100.00,SE,146,5.0,12.0,52,0.00,,,0.00,0.000000,,2013-11-15 13:22:00,
2013-11-15 06:32:00,39.0,23.0,-100.00,SE,146,5.0,12.0,52,0.00,,,0.00,0.000000,,2013-11-15 13:32:00,
2013-11-15 06:42:00,39.0,23.0,-100.00,SE,146,5.0,12.0,52,0.00,,,0.00,0.000000,,2013-11-15 13:42:00,
2013-11-15 06:52:00,39.0,23.0,-100.00,SE,146,5.0,12.0,52,0.00,,,0.00,0.000000,,2013-11-15 13:52:00,
2013-11-15 07:01:00,37.0,22.0,-100.00,WNW,290,2.0,8.0,55,0.00,,,0.00,0.000000,,2013-11-15 14:01:00,
2013-11-15 07:42:00,37.0,22.0,-100.00,WNW,290,2.0,8.0,55,0.00,,,0.00,0.000000,,2013-11-15 14:42:00,
2013-11-15 07:52:00,37.0,22.0,-100.00,WNW,290,2.0,8.0,55,0.00,,,0.00,0.000000,,2013-11-15 14:52:00,
2013-11-15 08:01:00,36.0,23.0,-100.00,SSW,208,2.0,5.0,59,0.00,,,0.00,2.000000,,2013-11-15 15:01:00,
2013-11-15 08:43:00,36.0,23.0,-100.00,SSW,208,2.0,5.0,59,0.00,,,0.00,2.000000,,2013-11-15 15:43:00,
2013-11-15 08:53:00,36.0,23.0,-100.00,SSW,208,2.0,5.0,59,0.00,,,0.00,2.000000,,2013-11-15 15:53:00,
2013-11-15 09:01:00,38.0,25.0,-100.00,SW,229,2.0,7.0,59,0.00,,,0.00,27.000000,,2013-11-15 16:01:00,
2013-11-15 09:43:00,38.0,25.0,-100.00,SW,229,2.0,7.0,59,0.00,,,0.00,27.000000,,2013-11-15 16:43:00,
2013-11-15 09:53:00,38.0,25.0,-100.00,SW,229,2.0,7.0,59,0.00,,,0.00,27.000000,,2013-11-15 16:53:00,
2013-11-15 10:01:00,38.0,27.0,-100.00,West,278,1.0,4.0,63,0.00,,,0.00,26.000000,,2013-11-15 17:01:00,
2013-11-15 10:42:00,38.0,27.0,-100.00,West,278,1.0,4.0,63,0.00,,,0.00,26.000000,,2013-11-15 17:42:00,
2013-11-15 10:52:00,38.0,27.0,-100.00,West,278,1.0,4.0,63,0.00,,,0.00,26.000000,,2013-11-15 17:52:00,
2013-11-15 11:01:00,41.0,27.0,-100.00,NNE,18,2.0,5.0,58,0.00,,,0.00,93.000000,,2013-11-15 18:01:00,
2013-11-15 11:42:00,41.0,27.0,-100.00,NNE,18,2.0,5.0,58,0.00,,,0.00,93.000000,,2013-11-15 18:42:00,
2013-11-15 11:52:00,41.0,27.0,-100.00,NNE,18,2.0,5.0,58,0.00,,,0.00,93.000000,,2013-11-15 18:52:00,
2013-11-15 12:01:00,41.0,23.0,-100.00,South,177,3.0,10.0,49,0.00,,,0.00,74.000000,,2013-11-15 19:01:00,
2013-11-15 12:42:00,41.0,23.0,-100.00,South,177,3.0,10.0,49,0.00,,,0.00,74.000000,,2013-11-15 19:42:00,
2013-11-15 12:52:00,41.0,23.0,-100.00,South,177,3.0,10.0,49,0.00,,,0.00,74.000000,,2013-11-15 19:52:00,
2013-11-15 13:01:00,40.0,23.0,-100.00,SE,130,3.0,10.0,50,0.00,,,0.00,74.000000,,2013-11-15 20:01:00,
2013-11-15 13:42:00,40.0,23.0,-100.00,SE,130,3.0,10.0,50,0.00,,,0.00,74.000000,,2013-11-15 20:42:00,
2013-11-15 13:52:00,40.0,23.0,-100.00,SE,130,3.0,10.0,50,0.00,,,0.00,74.000000,,2013-11-15 20:52:00,
2013-11-15 14:01:00,40.0,22.0,-100.00,North,356,4.0,12.0,49,0.00,,,0.00,74.000000,,2013-11-15 21:01:00,
2013-11-15 14:43:00,40.0,22.0,-100.00,North,356,4.0,12.0,49,0.00,,,0.00,74.000000,,2013-11-15 21:43:00,
2013-11-15 14:54:00,40.0,22.0,-100.00,North,356,4.0,12.0,49,0.00,,,0.00,74.000000,,2013-11-15 21:54:00,
2013-11-15 15:01:00,40.0,22.0,-100.00,SSW,209,3.0,12.0,49,0.00,,,0.00,66.000000,,2013-11-15 22:01:00,
2013-11-15 15:43:00,40.0,22.0,-100.00,SSW,209,3.0,12.0,49,0.00,,,0.00,66.000000,,2013-11-15 22:43:00,
2013-11-15 15:53:00,40.0,22.0,-100.00,SSW,209,3.0,12.0,49,0.00,,,0.00,66.000000,,2013-11-15 22:53:00,
2013-11-15 16:01:00,39.0,23.0,-100.00,WNW,282,4.0,9.0,52,0.00,,,0.00,51.000000,,2013-11-15 23:01:00,
2013-11-15 16:43:00,39.0,23.0,-100.00,WNW,282,4.0,9.0,52,0.00,,,0.00,51.000000,,2013-11-15 23:43:00,
2013-11-15 16:52:00,39.0,23.0,-100.00,WNW,282,4.0,9.0,52,0.00,,,0.00,51.000000,,2013-11-15 23:52:00,
2013-11-15 17:01:00,39.0,22.0,-100.00,ESE,120,5.0,12.0,50,0.00,,,0.00,10.000000,,2013-11-16 00:01:00,
2013-11-15 17:22:00,39.0,22.0,-100.00,ESE,120,5.0,12.0,50,0.00,,,0.00,10.000000,,2013-11-16 00:22:00,
2013-11-15 17:32:00,39.0,22.0,-100.00,ESE,120,5.0,12.0,50,0.00,,,0.00,10.000000,,2013-11-16 00:32:00,
2013-11-15 17:42:00,39.0,22.0,-100.00,ESE,120,5.0,12.0,50,0.00,,,0.00,10.000000,,2013-11-16 00:42:00,
2013-11-15 17:52:00,39.0,22.0,-100.00,ESE,120,5.0,12.0,50,0.00,,,0.00,10.000000,,2013-11-16 00:52:00,
2013-11-15 18:01:00,38.0,22.0,-100.00,SSE,161,4.0,14.0,51,0.00,,,0.00,0.000000,,2013-11-16 01:01:00,
2013-11-15 18:22:00,38.0,22.0,-100.00,SSE,161,4.0,14.0,51,0.00,,,0.00,0.000000,,2013-11-16 01:22:00,
2013-11-15 18:32:00,38.0,22.0,-100.00,SSE,161,4.0,14.0,51,0.00,,,0.00,0.000000,,2013-11-16 01:32:00,
2013-11-15 18:42:00,38.0,22.0,-100.00,SSE,161,4.0,14.0,51,0.00,,,0.00,0.000000,,2013-11-16 01:42:00,
2013-11-15 18:52:00,38.0,22.0,-100.00,SSE,161,4.0,14.0,51,0.00,,,0.00,0.000000,,2013-11-16 01:52:00,
2013-11-15 19:01:00,37.0,24.0,-100.00,North,1,2.0,8.0,58,0.00,,,0.00,0.000000,,2013-11-16 02:01:00,
2013-11-15 19:42:00,37.0,24.0,-100.00,North,1,2.0,8.0,58,0.00,,,0.00,0.000000,,2013-11-16 02:42:00,
2013-11-15 19:52:00,37.0,24.0,-100.00,North,1,2.0,8.0,58,0.00,,,0.00,0.000000,,2013-11-16 02:52:00,
2013-11-15 20:01:00,37.0,24.0,-100.00,WNW,299,2.0,7.0,60,0.00,,,0.00,0.000000,,2013-11-16 03:01:00,
2013-11-15 20:44:00,37.0,24.0,-100.00,WNW,299,2.0,7.0,60,0.00,,,0.00,0.000000,,2013-11-16 03:44:00,
2013-11-15 20:55:00,37.0,24.0,-100.00,WNW,299,2.0,7.0,60,0.00,,,0.00,0.000000,,2013-11-16 03:55:00,
2013-11-15 21:01:00,38.0,24.0,-100.00,WNW,292,2.0,11.0,56,0.00,,,0.00,0.000000,,2013-11-16 04:01:00,
2013-11-15 21:43:00,38.0,24.0,-100.00,WNW,292,2.0,11.0,56,0.00,,,0.00,0.000000,,2013-11-16 04:43:00,
2013-11-15 21:53:00,38.0,24.0,-100.00,WNW,292,2.0,11.0,56,0.00,,,0.00,0.000000,,2013-11-16 04:53:00,
2013-11-15 22:01:00,37.0,24.0,-100.00,SSW,201,3.0,7.0,58,0.00,,,0.00,0.000000,,2013-11-16 05:01:00,
2013-11-15 22:44:00,37.0,24.0,-100.00,SSW,201,3.0,7.0,58,0.00,,,0.00,0.000000,,2013-11-16 05:44:00,
2013-11-15 22:52:00,37.0,24.0,-100.00,SSW,201,3.0,7.0,58,0.00,,,0.00,0.000000,,2013-11-16 05:52:00,
2013-11-15 23:01:00,36.0,25.0,-100.00,WSW,249,2.0,6.0,63,0.00,,,0.00,0.000000,,2013-11-16 06:01:00,
2013-11-15 23:42:00,36.0,25.0,-100.00,WSW,249,2.0,6.0,63,0.00,,,0.00,0.000000,,2013-11-16 06:42:00,
2013-11-15 23:52:00,36.0,25.0,-100.00,WSW,249,2.0,6.0,63,0.00,,,0.00,0.000000,,2013-11-16 06:52:00,